FW3102 Weather Reports


Display with metric or nautical units.
time (UTC)temp
F
wind
direction
speed
MPH
gust
MPH
rain 1hr
in
rain 24hr
in
rain mn
in
humidity
%
barometer
mb
20260905034514 56 67 0.0 2.0 0.00 0.00 0.00 88 1012.9
20260905033025 56 63 0.0 3.0 0.00 0.00 0.00 88 1012.6
20260905031520 56 69 0.0 3.0 0.00 0.00 0.00 88 1012.5
20260905030008 57 86 0.0 4.0 0.00 0.00 0.00 88 1012.1
20260905024506 57 66 0.0 3.0 0.00 0.00 0.00 87 1012.0
20260905023018 57 79 0.0 3.0 0.00 0.00 0.00 87 1011.8
20260905021603 58 67 0.0 3.0 0.00 0.00 0.00 87 1011.4
20260905020104 58 90 0.0 3.0 0.00 0.00 0.00 86 1011.0
20260905014602 59 81 1.0 3.0 0.00 0.00 0.00 86 1010.6
20260905013056 59 72 1.0 4.0 0.00 0.00 0.00 86 1010.6
20260905011559 60 34 0.0 3.0 0.00 0.00 0.00 85 1010.3
20260905010052 61 6 0.0 3.0 0.00 0.00 0.00 85 1010.0
20260905004551 62 25 0.0 3.0 0.00 0.00 0.00 83 1009.7
20260905003049 63 86 0.0 3.0 0.00 0.00 0.00 81 1009.6
20260905001548 63 64 0.0 2.0 0.00 0.00 0.00 81 1009.4
20260905000059 63 79 0.0 3.0 0.00 0.00 0.00 82 1009.2
20260904234543 63 77 0.0 2.0 0.00 0.00 0.00 83 1008.9
20260904233040 63 72 1.0 4.0 0.00 0.00 0.00 80 1008.4
20260904231537 65 65 0.0 4.0 0.00 0.00 0.00 77 1008.2
20260904230036 65 209 0.0 1.0 0.00 0.00 0.00 76 1007.9
20260904224534 65 61 0.0 1.0 0.00 0.00 0.00 77 1007.6
20260904223034 64 70 0.0 2.0 0.00 0.00 0.00 77 1007.5
20260904221533 65 68 0.0 0.0 0.00 0.00 0.00 76 1007.5
20260904220101 65 66 0.0 2.0 0.00 0.00 0.00 75 1007.3
20260904214529 64 66 0.0 0.0 0.00 0.00 0.00 76 1007.6
20260904213033 64 82 0.0 0.0 0.00 0.00 0.00 76 1007.6
20260904211528 65 82 0.0 0.0 0.00 0.00 0.00 74 1007.7
20260904210034 66 218 0.0 0.0 0.00 0.00 0.00 75 1007.8
20260904204524 63 207 0.0 1.0 0.00 0.00 0.00 79 1007.9
20260904203032 62 96 0.0 1.0 0.00 0.00 0.00 80 1007.9
20260904201519 62 94 0.0 1.0 0.00 0.00 0.00 80 1007.7
20260904200021 62 74 0.0 1.0 0.00 0.00 0.00 79 1007.6
20260904194541 62 73 0.0 0.0 0.00 0.00 0.00 78 1007.4
20260904193017 62 212 0.0 0.0 0.00 0.00 0.00 78 1007.4
20260904191523 63 94 0.0 1.0 0.00 0.00 0.00 77 1007.2
20260904190013 62 219 0.0 0.0 0.00 0.00 0.00 76 1007.2
20260904184511 62 103 0.0 1.0 0.00 0.00 0.00 76 1007.1
20260904183009 62 205 0.0 1.0 0.00 0.00 0.00 78 1006.8
20260904181506 62 109 0.0 0.0 0.00 0.00 0.00 79 1006.5
20260904180005 62 214 0.0 0.0 0.00 0.00 0.00 79 1006.4
20260904174502 62 200 0.0 0.0 0.00 0.00 0.00 80 1006.4
20260904173101 61 92 0.0 0.0 0.00 0.00 0.00 80 1006.2
20260904171604 62 91 0.0 1.0 0.00 0.00 0.00 80 1006.1
20260904170056 60 89 0.0 0.0 0.00 0.00 0.00 83 1006.0
20260904164551 59 202 0.0 0.0 0.00 0.00 0.00 84 1005.9
20260904163100 58 101 0.0 1.0 0.00 0.00 0.00 84 1005.9
20260904161546 58 101 0.0 1.0 0.00 0.00 0.00 85 1005.8
20260904160045 57 218 0.0 1.0 0.00 0.00 0.00 85 1005.5
20260904154543 57 158 0.0 2.0 0.00 0.00 0.00 86 1005.5
20260904153046 57 74 0.0 0.0 0.00 0.00 0.00 87 1005.2
20260904151539 56 77 0.0 1.0 0.00 0.00 0.00 87 1005.1
20260904150048 56 111 0.0 1.0 0.00 0.00 0.00 87 1005.0
20260904144537 55 195 0.0 1.0 0.00 0.00 0.00 89 1004.7
20260904143035 54 205 0.0 2.0 0.00 0.00 0.00 90 1004.4
20260904141532 53 194 0.0 0.0 0.00 0.00 0.00 91 1004.2
20260904140038 52 149 0.0 0.0 0.00 0.06 0.00 93 1004.0
20260904134528 52 143 0.0 0.0 0.00 0.06 0.00 93 1003.7
20260904133026 52 143 0.0 0.0 0.00 0.06 0.00 93 1003.5
20260904131523 51 136 0.0 0.0 0.00 0.06 0.00 93 1003.1
20260904130023 51 136 0.0 0.0 0.00 0.09 0.00 93 1002.8
20260904124522 51 136 0.0 0.0 0.00 0.09 0.00 93 1002.8
20260904123018 51 136 0.0 0.0 0.00 0.09 0.00 92 1002.6
20260904121517 51 136 0.0 0.0 0.00 0.09 0.00 92 1002.4
20260904120017 51 136 0.0 0.0 0.00 0.17 0.00 92 1002.3
20260904114513 52 136 0.0 0.0 0.00 0.17 0.00 92 1002.1
20260904113017 52 136 0.0 0.0 0.00 0.17 0.00 92 1002.0
20260904111508 52 233 0.0 0.0 0.00 0.17 0.00 91 1001.8
20260904110019 53 128 0.0 0.0 0.00 0.21 0.00 91 1001.7
20260904104505 53 118 0.0 0.0 0.00 0.21 0.00 91 1001.5
20260904103003 53 117 0.0 0.0 0.00 0.21 0.00 91 1001.5
20260904101501 53 119 0.0 1.0 0.00 0.21 0.00 91 1001.3
20260904094556 54 102 0.0 0.0 0.00 0.21 0.00 90 1000.7
20260904093112 54 72 0.0 0.0 0.00 0.21 0.00 90 1000.6
20260904091552 54 236 0.0 1.0 0.00 0.21 0.00 90 1000.5
20260904090053 54 208 0.0 1.0 0.00 0.21 0.00 89 1000.4
20260904084550 55 211 0.0 0.0 0.00 0.21 0.00 89 1000.3
20260904083052 55 207 0.0 1.0 0.00 0.21 0.00 88 1000.4
20260904081548 55 216 0.0 0.0 0.00 0.21 0.00 88 1000.0
20260904080046 54 136 0.0 0.0 0.00 0.21 0.00 87 1000.2
20260904074545 54 218 0.0 0.0 0.00 0.21 0.00 86 1000.0
20260904073040 54 209 0.0 1.0 0.00 0.21 0.00 85 999.8
20260904071540 55 204 0.0 2.0 0.00 0.21 0.00 85 999.6
20260904070047 55 109 0.0 1.0 0.00 0.21 0.00 84 999.7
20260904064544 55 167 0.0 1.0 0.00 0.21 0.00 83 999.8
20260904063036 55 95 0.0 1.0 0.00 0.21 0.00 83 999.4
20260904061542 56 151 0.0 2.0 0.00 0.21 0.00 82 999.2
20260904060032 56 165 0.0 2.0 0.00 0.21 0.21 83 999.1
20260904054532 56 195 0.0 1.0 0.00 0.21 0.21 85 998.9
20260904053025 56 134 0.0 1.0 0.00 0.21 0.21 86 998.7
20260904051526 56 135 0.0 1.0 0.00 0.21 0.21 86 998.6
20260904050023 56 116 0.0 1.0 0.00 0.21 0.21 86 998.6
20260904044530 56 129 0.0 0.0 0.00 0.21 0.21 87 998.5
20260904043022 56 141 0.0 0.0 0.00 0.21 0.21 87 998.4
20260904041519 56 131 0.0 0.0 0.00 0.21 0.21 87 998.3
20260904040016 57 103 0.0 0.0 0.00 0.21 0.21 86 998.1